Startpagina
METAR-TAF:

METAR-TAF

Vliegvelden :

Bütgenbach, België

Elsenborn

breedte: 50-28N, lengte: 006-11E, hoogte: 564 m

Actueel weer

Dit bericht is 24 minuten geleden gemaakt, om 18:25 UTC
Wind 3 kt uit het westen
Temperatuur 16°C
Vochtigheid 82%
Druk 1009 hPa
Zicht 10 km of meer

METAR: EBLB 271825Z AUTO 28003KT 9999 FEW018/// SCT032/// 16/13 Q1009 BLU

Tijdstip: 20:49 (18:49 UTC)


TAF: ontbreekt

Waarnemingen en weersverwachtingen van meer dan 4000 vliegvelden (METAR en TAF).

De beschikbare stations zijn de gele en rode punten op de kaart.

Ga met uw muis naar het station om de naam te zien.

Klik dan om waarnemingen en weersverwachtingen te zien.

kaart wijzigen: klik op de groene knoppen met een zwart kruis om in te zoomen, op de groene knop met een streepje om uit te zoomen of op de groene pijlen voor aangrenzende kaarten.


METAR-TAF: